TimeCDT,TemperatureF,Dew PointF,Humidity,Sea Level PressureIn,VisibilityMPH,Wind Direction,Wind SpeedMPH,Gust SpeedMPH,PrecipitationIn,Events,Conditions,WindDirDegrees,DateUTC
12:15 AM,64.4,57.2,77,29.97,10.0,North,8.1,-,N/A,,Clear,350,2013-09-21 05:15:00
12:35 AM,64.4,59.0,83,29.97,10.0,NNW,11.5,-,N/A,,Clear,340,2013-09-21 05:35:00
12:55 AM,64.4,59.0,83,29.97,10.0,NNW,10.4,-,N/A,,Clear,340,2013-09-21 05:55:00
1:15 AM,64.4,59.0,83,29.97,10.0,NNW,10.4,-,N/A,,Clear,330,2013-09-21 06:15:00
1:35 AM,64.4,59.0,83,29.97,10.0,NNW,9.2,-,N/A,,Clear,330,2013-09-21 06:35:00
1:55 AM,64.4,59.0,83,29.96,10.0,NNW,11.5,-,N/A,,Clear,330,2013-09-21 06:55:00
2:15 AM,64.4,57.2,77,29.97,10.0,NNW,11.5,17.3,N/A,,Clear,340,2013-09-21 07:15:00
2:35 AM,62.6,57.2,82,29.96,10.0,NNW,10.4,-,N/A,,Clear,330,2013-09-21 07:35:00
2:55 AM,62.6,57.2,82,29.96,10.0,NW,11.5,-,N/A,,Clear,320,2013-09-21 07:55:00
3:15 AM,62.6,55.4,77,29.96,10.0,NNW,11.5,-,N/A,,Clear,340,2013-09-21 08:15:00
3:35 AM,62.6,55.4,77,29.96,10.0,NW,10.4,-,N/A,,Clear,320,2013-09-21 08:35:00
3:55 AM,60.8,55.4,82,29.96,10.0,NNW,9.2,-,N/A,,Clear,330,2013-09-21 08:55:00
4:15 AM,60.8,55.4,82,29.97,10.0,NNW,8.1,-,N/A,,Clear,330,2013-09-21 09:15:00
4:35 AM,60.8,55.4,82,29.97,10.0,NNW,6.9,-,N/A,,Clear,330,2013-09-21 09:35:00
4:55 AM,59.0,55.4,88,29.97,10.0,NNW,6.9,-,N/A,,Clear,340,2013-09-21 09:55:00
5:15 AM,59.0,55.4,88,29.97,10.0,NNW,8.1,-,N/A,,Clear,340,2013-09-21 10:15:00
5:35 AM,59.0,55.4,88,29.98,10.0,NNW,9.2,-,N/A,,Clear,340,2013-09-21 10:35:00
5:55 AM,59.0,55.4,88,29.98,10.0,NNW,8.1,-,N/A,,Clear,340,2013-09-21 10:55:00
6:15 AM,59.0,55.4,88,29.98,10.0,NNW,9.2,-,N/A,,Clear,340,2013-09-21 11:15:00
6:35 AM,59.0,55.4,88,29.98,10.0,NNW,6.9,-,N/A,,Clear,340,2013-09-21 11:35:00
6:55 AM,59.0,53.6,82,29.98,10.0,NNW,8.1,-,N/A,,Clear,340,2013-09-21 11:55:00
7:15 AM,57.2,53.6,88,29.98,10.0,NNW,8.1,-,N/A,,Clear,340,2013-09-21 12:15:00
7:35 AM,57.2,53.6,88,29.99,10.0,NNW,9.2,-,N/A,,Clear,330,2013-09-21 12:35:00
7:55 AM,59.0,55.4,88,29.99,10.0,NNW,10.4,-,N/A,,Clear,330,2013-09-21 12:55:00
8:15 AM,60.8,55.4,82,29.99,10.0,NW,10.4,-,N/A,,Clear,320,2013-09-21 13:15:00
8:35 AM,62.6,55.4,77,30.00,10.0,NNW,11.5,-,N/A,,Clear,340,2013-09-21 13:35:00
8:55 AM,64.4,53.6,68,30.00,10.0,North,12.7,19.6,N/A,,Clear,350,2013-09-21 13:55:00
9:15 AM,64.4,53.6,68,30.00,10.0,NNE,12.7,-,N/A,,Clear,30,2013-09-21 14:15:00
9:35 AM,66.2,53.6,64,30.00,10.0,North,12.7,17.3,N/A,,Clear,360,2013-09-21 14:35:00
9:55 AM,68.0,53.6,60,30.01,10.0,NNE,9.2,-,N/A,,Clear,30,2013-09-21 14:55:00
10:15 AM,69.8,53.6,56,30.02,10.0,NNE,12.7,-,N/A,,Clear,30,2013-09-21 15:15:00
10:35 AM,69.8,53.6,56,30.02,10.0,NE,10.4,18.4,N/A,,Clear,50,2013-09-21 15:35:00
10:55 AM,71.6,51.8,50,30.02,10.0,NNE,11.5,-,N/A,,Clear,30,2013-09-21 15:55:00
11:15 AM,71.6,51.8,50,30.01,10.0,NE,19.6,23.0,N/A,,Clear,40,2013-09-21 16:15:00
11:35 AM,73.4,51.8,47,30.00,10.0,NNE,12.7,18.4,N/A,,Clear,30,2013-09-21 16:35:00
11:55 AM,73.4,50.0,44,30.00,10.0,ENE,13.8,18.4,N/A,,Clear,60,2013-09-21 16:55:00
12:15 PM,75.2,50.0,41,30.00,10.0,NNE,11.5,-,N/A,,Clear,20,2013-09-21 17:15:00
12:35 PM,77.0,48.2,36,29.99,10.0,NE,11.5,18.4,N/A,,Clear,40,2013-09-21 17:35:00
12:55 PM,78.8,46.4,32,29.98,10.0,NE,12.7,19.6,N/A,,Clear,40,2013-09-21 17:55:00
1:15 PM,78.8,46.4,32,29.97,10.0,North,12.7,18.4,N/A,,Clear,350,2013-09-21 18:15:00
1:35 PM,80.6,44.6,28,29.96,10.0,NE,12.7,19.6,N/A,,Clear,40,2013-09-21 18:35:00
1:55 PM,80.6,46.4,30,29.96,10.0,NE,10.4,18.4,N/A,,Clear,50,2013-09-21 18:55:00
2:15 PM,80.6,44.6,28,29.95,10.0,NE,15.0,18.4,N/A,,Clear,40,2013-09-21 19:15:00
2:35 PM,82.4,44.6,26,29.94,10.0,NE,9.2,-,N/A,,Clear,50,2013-09-21 19:35:00
2:55 PM,82.4,44.6,26,29.93,10.0,NNE,11.5,19.6,N/A,,Clear,30,2013-09-21 19:55:00
3:15 PM,82.4,44.6,26,29.92,10.0,NE,10.4,17.3,N/A,,Clear,40,2013-09-21 20:15:00
3:35 PM,82.4,44.6,26,29.92,10.0,NNE,10.4,16.1,N/A,,Clear,30,2013-09-21 20:35:00
3:55 PM,84.2,44.6,25,29.91,10.0,NE,9.2,-,N/A,,Clear,40,2013-09-21 20:55:00
4:15 PM,86.0,42.8,22,29.90,10.0,ENE,8.1,-,N/A,,Clear,70,2013-09-21 21:15:00
4:35 PM,84.2,42.8,23,29.90,10.0,NE,8.1,16.1,N/A,,Clear,40,2013-09-21 21:35:00
4:55 PM,86.0,42.8,22,29.90,10.0,NNE,12.7,-,N/A,,Clear,30,2013-09-21 21:55:00
5:15 PM,84.2,42.8,23,29.89,10.0,ENE,4.6,9.2,N/A,,Clear,70,2013-09-21 22:15:00
5:35 PM,84.2,41.0,22,29.89,10.0,NE,4.6,16.1,N/A,,Clear,40,2013-09-21 22:35:00
5:55 PM,86.0,41.0,20,29.89,10.0,ENE,9.2,-,N/A,,Clear,60,2013-09-21 22:55:00
6:15 PM,84.2,41.0,22,29.89,10.0,ENE,6.9,-,N/A,,Clear,60,2013-09-21 23:15:00
6:35 PM,82.4,42.8,25,29.90,10.0,NE,6.9,-,N/A,,Clear,40,2013-09-21 23:35:00
6:55 PM,80.6,42.8,26,29.90,10.0,ENE,5.8,-,N/A,,Clear,60,2013-09-21 23:55:00
7:15 PM,77.0,44.6,32,29.90,10.0,NE,4.6,-,N/A,,Clear,40,2013-09-22 00:15:00
7:35 PM,73.4,44.6,36,29.90,10.0,North,4.6,-,N/A,,Clear,10,2013-09-22 00:35:00
7:55 PM,73.4,44.6,36,29.90,10.0,West,5.8,-,N/A,,Clear,270,2013-09-22 00:55:00
8:15 PM,71.6,46.4,41,29.90,10.0,North,5.8,-,N/A,,Clear,350,2013-09-22 01:15:00
8:35 PM,69.8,50.0,49,29.91,10.0,North,5.8,-,N/A,,Clear,360,2013-09-22 01:35:00
8:55 PM,69.8,48.2,46,29.91,10.0,West,5.8,-,N/A,,Clear,260,2013-09-22 01:55:00
9:15 PM,68.0,50.0,52,29.92,10.0,North,5.8,-,N/A,,Clear,10,2013-09-22 02:15:00
9:35 PM,68.0,50.0,52,29.92,10.0,North,5.8,-,N/A,,Clear,350,2013-09-22 02:35:00
9:55 PM,68.0,50.0,52,29.92,10.0,North,5.8,-,N/A,,Clear,350,2013-09-22 02:55:00
10:15 PM,66.2,50.0,56,29.92,10.0,NW,6.9,-,N/A,,Clear,310,2013-09-22 03:15:00
10:35 PM,64.4,50.0,59,29.92,10.0,North,4.6,-,N/A,,Clear,360,2013-09-22 03:35:00
10:55 PM,64.4,50.0,59,29.92,10.0,WSW,5.8,-,N/A,,Clear,240,2013-09-22 03:55:00
11:15 PM,62.6,51.8,68,29.92,10.0,WSW,4.6,-,N/A,,Clear,240,2013-09-22 04:15:00
11:35 PM,62.6,51.8,68,29.92,10.0,West,4.6,-,N/A,,Clear,260,2013-09-22 04:35:00
11:55 PM,60.8,51.8,72,29.92,10.0,NW,3.5,-,N/A,,Clear,320,2013-09-22 04:55:00